Other Surface Observations
Issued by NWS

Home | Current Version | Previous Version | Text Only | Print | Product List | Glossary On
Versions: 1 2 3 4 5 6 7 8 9 10 11 12 13 14 15 16 17 18 19 20 21 22 23 24 25 26 27 28 29 30 31 32 33 34 35 36 37 38 39 40 41 42 43 44 45 46 47 48 49 50
000
SXUS52 KTAE 060818
OSOTAE
OSOTAE
North Florida/South Alabama/Southwest Georgia Weather Roundup
National Weather Service Tallahassee Florida
300 AM EST FRI MAR 06 2015

Note: "fair" indicates few or no clouds below 12,000 feet with no
significant weather and/or obstructions to visibility.

!FLZ017-115-028-034-025-060900
...North Florida...

CITY           SKY/WX    TMP DP  RH WIND       PRES   REMARKS
TALLAHASSEE    PTCLDY    45  37  73 N7        30.24F WCI  41
APALACHICOLA   CLOUDY    48  38  68 N16       30.23F WCI  42
PERRY          NOT AVBL
CROSS CITY       N/A     57  54  89 N12       30.18R
JACKSONVILLE   CLOUDY    55  55 100 N12       30.19R
$$

!FLZ112-006-005-002-011-060900
...Florida Panhandle...

CITY           SKY/WX    TMP DP  RH WIND       PRES   REMARKS
MARIANNA       MOCLDY    39  32  76 N13       30.29F WCI  31
BONIFAY        FAIR      38  30  73 N10       30.33S WCI  31
PANAMA CITY NW MOCLDY    40  32  73 N10       30.27F WCI  33
TYNDALL AFB    PTCLDY    40  34  76 N13G23    30.27S WCI  33
TYND DRONE APT PTSUNNY   40  35  83 N20G28    30.26S WCI  31
DE FUNIAK SPR  CLOUDY    34  28  76 N12G25    30.32F WCI  26
EGLIN AFB      MOCLDY    36  28  72 N14       30.32S WCI  27
DESTIN         MOCLDY    38  30  73 N17G23    30.32S WCI  28
HURLBURT       MOCLDY    36  23  59 N17G29    30.32S WCI  26
CRESTVIEW      MOCLDY    34  26  72 N7        30.35S WCI  28
PENSACOLA      PTCLDY    33  25  72 N16G24    30.34F WCI  23
$$

!ALZ063-066-060900
...South Alabama...

CITY           SKY/WX    TMP DP  RH WIND       PRES   REMARKS
DOTHAN         MOCLDY    35  28  75 N17G23    30.34S WCI  25
OZARK CAIRNS   CLOUDY    34  25  71 N14G23    30.32S WCI  24
FT RUCKER HELI MOCLDY    33  25  72 N14       30.32F WCI  23
RUCKER HELI 3  MOCLDY    32  27  81 N14G20    30.34S WCI  22
RUCKER HELI 2  FAIR      33  26  75 N15       30.32S WCI  23
FLORALA APT    MOCLDY    32  26  78 N7        30.35F WCI  26
ANDALUSIA      MOCLDY    34  24  67 N10       30.35F WCI  26
TROY           PTCLDY    30  23  75 N10       30.36F WCI  21
EUFALA         FAIR      33  25  72 NW7       30.33S WCI  27
MOBILE         PTCLDY    29  21  72 N12       30.41R WCI  19
$$

!GAZ120>161-060900
...Southwest and South Central Georgia...

CITY           SKY/WX    TMP DP  RH WIND       PRES   REMARKS
THOMASVILLE    FAIR      43  37  81 N10       30.26R WCI  37
BAINBRIDGE     MOCLDY    43  36  75 NW10      30.30R WCI  37
MOODY AFB      CLEAR     45  39  79 N17       30.23R WCI  38
VALDOSTA       CLEAR     46  40  79 MISG      30.23S
MOULTRIE       MOCLDY    43  37  81 NW8       30.26S WCI  38
BLAKELY        MOCLDY    39  32  75 N7        30.32R WCI  34
ALBANY         CLOUDY    40  31  70 N9        30.31S WCI  34
TIFTON         MOCLDY    41  35  78 N9        30.26S WCI  35
FITZGERALD     CLOUDY    43  34  71 N9        30.29S WCI  37
CORDELE        CLOUDY    40  32  71 N7        30.30R WCI  35
AMERICUS       PTSUNNY   36  30  80 N10G16    30.32R WCI  28
HOMERVILLE     MOCLDY    46  43  87 N9G16     30.25R WCI  42
$$

!GMZ750-755-770-775-060900
...Coastal and Buoy Obs...

STATION/POSITION TIME  TEMP    WIND        PRES    VSBY  WAVE
                       AIR SEA DIR/SP/G                  HT/PER
                 (UTC) (F)     (DEG/KT/KT) (MB)    (MI)  (FT/S)
KEATON BEACH     0800   52     360/  6/  9 1022.6S
CEDAR KEY        0800   63      10/ 10/ 14 1021.1F
C TOWER          0800   47      10/ 18/ 20 1022.8R
APALACHICOLA BUO 0800   59 68  360/ 19/ 23 1021.4F         5/ 5
PANAMA CITY BUOY 0744   55 71   20/ 21/ 27 1023.0F         7/ 6
MOBILE BUOY      0701   45 67   10/ 25/ 29 1026.8F
ORANGE BCH AL BU 0800   39 61  360/ 21/ 25 1026.5F         4/ 5
$$



USA.gov is the U.S. government's official web portal to all federal, state and local government web resources and services.